Find Starlink 38168

NORAD ID: 100251 Int'l Des: 2026-181 Owner: SPXS Country: US Constellation: starlink operational

現在のビュー

3D地球を読み込み中...

About Starlink 38168

Starlink 38168 (NORAD 100251) is a starlink constellation satellite launched Aug 8, 2026 by SPXS of US. with a mass of 575.00 kg.

次回通過

Passes for default location (London). Set your location on the main map for personalized predictions.

高度履歴

Loading altitude history...

軌道要素

1 A0251U 26181F 26262.64000734 .00185078 00000-0 12159-2 0 9997
2 A0251 97.2850 306.1703 0001040 121.0905 239.0462 15.75173371 7827
Epoch: Sep 19, 2026 • Age: 24 hours

現在のステータス

高度 372.0 km
遠地点 / 近地点 N/A
速度 7.68 km/s
衛星直下点 -81.39°S, 159.7°W
打ち上げ日 Aug 8, 2026
運用期間 0.1 years
タイプ internet

技術仕様

分類 Payload
質量 575.00 kg
乾燥質量 530.00 kg
長さ 0.30 m
スパン 29.00 m
形状 ? Box + pan
製造者 SPXS
バスタイプ Starlink V2MO
フェーズステータス In Orbit
所有者/国 SPXS/US

Most Searched